{"data":{"norad_id":63408,"epoch":"2026-09-19T22:33:10.933632Z","epoch_age_seconds":207186,"freshness":"STALE","line1":"1 63408U 25065K   26262.93970988  .00012408  00000+0  45948-3 0  9997","line2":"2 63408  43.0025  93.8786 0002662 271.7080  88.3467 15.27591355 82503","mean_motion":15.27591355,"eccentricity":0.0002662,"inclination_deg":43.0025,"raan_deg":93.8786,"arg_perigee_deg":271.708,"mean_anomaly_deg":88.3467,"bstar":0.00045948,"rev_number":8250,"period_min":94.266048003394,"perigee_km":481.18865660756,"apogee_km":484.8415339831,"semimajor_km":6861.1520952953,"source":"CELESTRAK","updated_at":"2026-09-21T09:00:34.979369Z"}}